Probability
0 0 0 0 0 0 0 0 0 0 0 0 0 0 0 0 0 0 0 0 0 0 0 0 0 0 0 0 0 0 0 0 0 0 0 0 0 0 0 0 0 0 0 0
0 0 0 0 0 0 0 0 0 0 0 0 0 0 0 0 0 0 0 0 0 0 0 0 0 0 0 0 0 0 0 0 0 0 0 0 0 0 0 0 0 0 0 0
0 0 0 0 0 0 0 0 0 0 0 0 0 0 0 0 0 0 0 0 0 0 0 0 0 0 0 0 0 0 0 0 0 0 0 0 0 0 0 0 0 0 0 0
0 0 0 0 0 0 0 0 0 0 0 0 0 0 0 0 0 0 0 0 0 0 0 0 0 0 0 0 0 0 0 0 0 0 0 0 0 0 0 0 0 0 0 0
0 0 0 0 0 0 0 0 0 0 0 0 0 0 0 0 0 0 0 0 0 0 0 0 0 0 0 0 0 0 0 0 0 0 0 0 0 0 0 0 0 0 0 0
0 0 0 0 0 0 0 0 0 0 0 0 0 0 0 0 0 0 0 0 0 0 0 0 0 0 0 0 0 0 0 0 0 0 0 0 0 0 0 0 0 0 0 0
0 0 0 0 0 0 0 0 0 0 0 0 0 0 0 0 0 0 0 0 0 0 0 0 0 0 0 0 0 0 0 0 0 0 0 0 0 0 0 0 0 0 0 0
0 0 0 0 0 0 0 0 0 0 0 0 0 0 0 0 0 0 0 0 0 0 0 0 0 0 0 0 0 0 0 0 0 0 0 0 0 0 0 0 0 0 0 0
0 0 0 0 0 0 0 0 0 0 0 0 0 0 0 0 0 0 0 0 0 0 0 0 0 0 0 0 0 0 0 0 0 0 0 0 0 0 0 0 0 0 0 0
0 0 0 0 0 0 0 0 0 0 0 0 0 0 0 0 0 0 0 0 0 0 0 0 0 0 0 0 0 0 0 0 0 0 0 0 0 0 0 0 0 0 0 0
0 0 0 0 0 0 0 0 0 0 0 0 0 0 0 0 0 0 0 0 0 0 0 0 0 0 0 0 0 0 0 0 0 0 0 0 0 0 0 0 0 0 0 0
0 0 0 0 0 0 0 0 0 0 0 0 0 0 0 0 0 0 0 0 0 0 0 0 0 0 0 0 0 0 0 0 0 0 0 0 0 0 0 0 0 0 0 0
0 0 0 0 0 0 0 0 0 0 0 0 0 0 0 0 0 0 0 0 0 0 0 0 0 0 0 0 0 0 0 0 0 0 0 0 0 0 0 0 0 0 0 0
0 0 0 0 0 0 0 0 0 0 0 0 0 0 0 0 0 0 0 0 0 0 0 0 0 0 0 0 0 0 0 0 0 0 0 0 0 0 0 0 0 0 0 0
0 0 0 0 0 0 0 0 0 0 0 0 0 0 0 0 0 0 0 0 0 0 0 0 0 0 0 0 0 0 0 0 0 0 0 0 0 0 0 0 0 0 0 0
0 0 0 0 0 0 0 0 0 0 0 0 0 0 0 0 0 0 0 0 0 0 0 0 0 0 0 0 0 0 0 0 0 0 0 0 0 0 0 0 0 0 0 0
0 0 0 0 0 0 0 0 0 0 0 0 0 0 0 0 0 0 0 0 0 0 0 0 0 0 0 0 0 0 0 0 0 0 0 0 0 0 0 0 0 0 0 0
0 0 0 0 0 0 0 0 0 0 0 0 0 0 0 0 0 0 0 0 0 0 0 0 0 0 0 0 0 0 0 0 0 0 0 0 0 0 0 0 0 0 0 0
0 0 0 0 0 0 0 0 0 0 0 0 0 0 0 0 0 0 0 0 0 0 0 0 0 0 0 0 0 0 0 0 0 0 0 0 0 0 0 0 0 0 0 0
0 0 0 0 0 0 0 0 0 0 0 0 0 0 0 0 0 0 0 0 0 0 0 0 0 0 0 0 0 0 0 0 0 0 0 0 0 0 0 0 0 0 0 0
0 0 0 0 0 0 0 0 0 0 0 0 0 0 0 0 0 0 0 0 0 0 0 0 0 0 0 0 0 0 0 0 0 0 0 0 0 0 0 0 0 0 0 0
0 0 0 0 0 0 0 0 0 0 0 0 0 0 0 0 0 0 0 0 0 0 0 0 0 0 0 0 0 0 0 0 0 0 0 0 0 0 0 0 0 0 0 0
0 0 0 0 0 0 0 0 0 0 0 0 0 0 0 0 0 0 0 0 0 0 0 0 0 0 0 0 0 0 0 0 0 0 0 0 0 0 0 0 0 0 0 0
0 0 0 0 0 0 0 0 0 0 0 0 0 0 0 0 0 0 0 0 0 0 0 0 0 0 0 0 0 0 0 0 0 0 0 0 0 0 0 0 0 0 0 0
0 0 0 0 0 0 0 0 0 0 0 0 0 0 0 0 0 0 0 0 0 0 0 0 0 0 0 0 0 0 0 0 0 0 0 0 0 0 0 0 0 0 0 0
0 0 0 0 0 0 0 0 0 0 0 0 0 0 0 0 0 0 0 0 0 0 0 0 0 0 0 0 0 0 0 0 0 0 0 0 0 0 0 0 0 0 0 0
Height
5887 5887 5884 5882 5879 5877 5874 5872 5869 5867 5864 5862 5860 5856 5851 5847 5842 5837 5831 5825 5818 5811 5803 5793 5783 5773 5761 5749 5735 5720 5706 5691 5674 5656 5638 5620 5602 5583 5566 5549 5533 5519 5506 5495
5888 5885 5884 5881 5879 5876 5874 5871 5869 5867 5863 5860 5857 5853 5848 5843 5838 5832 5826 5820 5813 5804 5795 5785 5775 5764 5752 5738 5723 5709 5694 5677 5658 5640 5621 5602 5585 5568 5551 5534 5517 5502 5489 5478
5886 5885 5882 5880 5878 5876 5874 5871 5868 5865 5862 5858 5854 5851 5844 5839 5833 5826 5820 5813 5806 5797 5787 5777 5766 5755 5742 5727 5713 5698 5681 5663 5644 5624 5606 5589 5572 5555 5539 5523 5506 5489 5475 5463
5885 5883 5882 5880 5878 5876 5873 5870 5866 5862 5859 5855 5850 5847 5841 5834 5827 5820 5814 5807 5799 5789 5779 5769 5758 5746 5732 5718 5702 5686 5668 5648 5629 5609 5591 5574 5558 5542 5525 5508 5491 5475 5460 5448
5885 5883 5881 5879 5877 5874 5871 5868 5864 5860 5856 5852 5846 5841 5836 5828 5820 5814 5808 5800 5791 5782 5772 5761 5750 5737 5723 5708 5691 5674 5655 5635 5615 5596 5578 5561 5544 5526 5510 5493 5477 5462 5448 5434
5884 5882 5880 5878 5876 5873 5870 5867 5863 5858 5853 5848 5841 5835 5829 5821 5815 5809 5802 5793 5784 5775 5765 5754 5742 5729 5714 5698 5681 5663 5644 5624 5605 5586 5567 5550 5533 5515 5498 5481 5465 5451 5436 5419
5884 5882 5880 5878 5875 5872 5868 5865 5860 5855 5850 5844 5837 5830 5824 5817 5810 5803 5796 5787 5778 5768 5758 5747 5735 5721 5705 5688 5671 5653 5634 5615 5595 5576 5558 5540 5521 5503 5484 5467 5451 5436 5420 5401
5882 5881 5879 5877 5874 5871 5867 5862 5857 5852 5847 5842 5834 5827 5822 5814 5806 5797 5790 5781 5772 5762 5752 5741 5728 5713 5697 5680 5663 5644 5625 5606 5587 5568 5550 5531 5512 5493 5474 5456 5438 5421 5401 5379
5881 5880 5878 5876 5873 5870 5866 5861 5856 5850 5843 5838 5831 5824 5817 5809 5801 5793 5785 5776 5766 5756 5746 5734 5720 5705 5689 5672 5654 5636 5617 5598 5579 5561 5542 5523 5505 5485 5466 5448 5429 5409 5386 5363
5880 5879 5877 5875 5872 5868 5864 5859 5854 5847 5839 5833 5829 5820 5814 5805 5797 5789 5780 5770 5760 5750 5739 5727 5713 5697 5681 5664 5647 5628 5609 5590 5571 5553 5535 5517 5498 5479 5460 5442 5422 5401 5377 5352
5880 5878 5877 5874 5870 5867 5863 5858 5852 5846 5839 5831 5825 5821 5812 5802 5793 5784 5775 5765 5755 5744 5733 5720 5706 5690 5674 5657 5640 5621 5602 5583 5565 5547 5529 5511 5493 5474 5455 5436 5417 5395 5371 5348
5879 5877 5875 5872 5869 5865 5861 5856 5851 5846 5839 5831 5824 5820 5809 5800 5789 5780 5770 5760 5749 5738 5726 5714 5700 5684 5668 5651 5633 5615 5597 5578 5560 5543 5525 5507 5489 5471 5452 5434 5414 5392 5369 5346
5877 5876 5874 5871 5869 5865 5860 5855 5850 5844 5838 5830 5822 5819 5806 5796 5785 5775 5765 5755 5744 5732 5721 5708 5694 5678 5662 5645 5628 5610 5592 5574 5556 5539 5522 5504 5487 5469 5451 5432 5413 5392 5370 5348
5876 5874 5873 5871 5866 5862 5858 5853 5847 5841 5835 5828 5821 5813 5804 5792 5781 5771 5760 5749 5738 5727 5715 5703 5689 5673 5657 5640 5623 5605 5588 5570 5553 5536 5519 5502 5485 5467 5449 5431 5412 5393 5373 5351
5874 5872 5870 5867 5864 5860 5856 5851 5845 5839 5832 5826 5818 5809 5800 5789 5778 5767 5755 5744 5733 5722 5710 5697 5683 5668 5652 5635 5618 5601 5584 5567 5550 5534 5518 5501 5484 5467 5449 5432 5414 5396 5376 5356
5871 5870 5868 5865 5862 5858 5854 5849 5843 5837 5830 5823 5814 5806 5796 5786 5775 5763 5752 5740 5729 5717 5705 5692 5679 5663 5647 5631 5614 5598 5582 5566 5549 5533 5516 5500 5484 5468 5451 5434 5417 5399 5381 5362
5869 5867 5865 5862 5859 5856 5852 5847 5841 5835 5827 5820 5811 5803 5793 5783 5772 5760 5748 5736 5724 5712 5700 5688 5674 5660 5644 5628 5611 5596 5581 5564 5547 5531 5515 5500 5484 5469 5453 5436 5420 5403 5386 5368
5865 5863 5861 5859 5857 5853 5850 5843 5838 5832 5824 5816 5808 5799 5789 5779 5768 5756 5744 5732 5720 5708 5696 5684 5670 5656 5641 5625 5609 5595 5579 5563 5546 5530 5514 5500 5485 5470 5455 5440 5424 5408 5391 5375
5861 5859 5857 5855 5852 5849 5845 5839 5833 5827 5822 5813 5804 5795 5785 5775 5764 5753 5741 5729 5716 5704 5692 5680 5667 5653 5638 5622 5607 5593 5578 5562 5545 5530 5515 5501 5487 5472 5458 5443 5429 5413 5398 5382
5855 5854 5853 5849 5845 5843 5841 5834 5827 5822 5815 5808 5799 5790 5781 5771 5761 5751 5738 5726 5713 5701 5689 5676 5664 5650 5635 5621 5606 5592 5577 5561 5546 5530 5516 5503 5489 5474 5460 5447 5433 5418 5404 5389
5849 5848 5847 5843 5840 5837 5834 5828 5822 5817 5811 5803 5794 5786 5777 5768 5758 5748 5735 5723 5710 5698 5685 5673 5661 5647 5634 5619 5605 5591 5577 5562 5546 5531 5518 5504 5490 5477 5463 5450 5437 5423 5409 5395
5842 5842 5841 5838 5835 5833 5828 5822 5817 5813 5806 5798 5791 5782 5774 5765 5754 5743 5732 5719 5707 5695 5682 5670 5658 5645 5632 5618 5604 5591 5576 5562 5547 5533 5519 5506 5493 5480 5467 5454 5441 5428 5416 5403
5835 5835 5834 5833 5833 5826 5822 5817 5812 5807 5801 5794 5786 5778 5770 5761 5751 5740 5729 5717 5704 5692 5679 5667 5655 5643 5630 5617 5603 5590 5576 5561 5547 5533 5520 5508 5495 5483 5471 5459 5447 5435 5423 5411
5827 5827 5826 5826 5826 5820 5815 5811 5806 5801 5795 5788 5781 5774 5765 5757 5747 5737 5726 5714 5702 5689 5676 5664 5653 5641 5628 5615 5602 5589 5575 5561 5547 5534 5521 5508 5497 5486 5475 5463 5452 5441 5430 5419
5818 5818 5818 5818 5817 5813 5810 5805 5800 5794 5788 5782 5776 5768 5761 5752 5743 5733 5722 5711 5699 5686 5674 5662 5651 5639 5627 5614 5602 5589 5575 5562 5548 5534 5522 5509 5498 5486 5476 5467 5457 5446 5434 5422
5811 5811 5810 5810 5808 5803 5803 5798 5793 5788 5782 5776 5770 5763 5755 5747 5739 5729 5719 5708 5696 5683 5671 5659 5648 5637 5625 5613 5601 5588 5575 5562 5549 5536 5523 5511 5500 5489 5478 5468 5457 5448 5438 5427
Wind_Speed
9 9 11 13 13 14 16 17 17 17 17 17 18 21 24 26 30 33 37 40 44 48 51 53 56 59 64 68 71 73 77 81 84 86 88 87 83 79 78 77 76 73 67 61
9 10 12 12 13 14 15 16 16 15 16 18 20 22 27 29 32 36 39 43 46 50 52 55 58 62 66 69 72 74 78 81 85 88 89 86 80 78 77 75 74 71 65 60
10 11 12 12 12 13 14 15 17 17 19 22 23 24 29 32 35 39 42 45 48 51 54 56 59 63 67 69 72 75 79 83 87 88 87 82 78 76 75 73 71 67 63 60
10 11 11 11 12 14 15 17 19 21 23 25 28 28 30 34 38 41 43 46 49 52 55 57 61 64 67 70 73 77 81 85 88 87 84 81 78 76 75 74 70 65 61 61
9 10 11 12 13 16 18 20 22 24 25 27 30 32 33 37 39 42 43 46 49 53 55 57 61 65 68 71 75 78 82 86 87 86 83 79 78 77 76 73 68 62 60 62
7 8 10 12 15 18 20 22 23 25 27 29 31 33 35 38 39 41 43 46 50 53 55 58 62 66 69 72 76 79 83 86 86 84 81 78 77 76 75 71 65 62 63 67
6 7 10 13 16 20 22 25 27 28 29 31 32 33 35 36 38 41 44 47 51 53 54 58 63 67 70 73 76 79 83 85 84 82 79 77 77 76 74 70 66 66 69 75
5 7 11 14 17 19 23 26 29 31 32 31 31 32 34 36 39 42 44 47 50 52 54 59 63 67 71 73 76 79 83 84 83 80 77 76 76 75 73 70 69 72 77 81
5 7 10 14 16 19 22 26 29 32 34 34 34 35 35 39 41 43 45 47 49 51 54 59 64 68 71 74 76 80 83 83 81 78 75 74 75 74 71 69 71 75 81 82
5 7 10 13 16 20 24 27 30 34 37 39 37 38 40 41 42 44 45 47 49 51 54 59 64 68 71 74 76 80 82 81 79 76 74 74 74 73 71 70 72 77 81 79
4 6 9 12 16 19 23 27 30 32 36 39 41 41 44 44 44 45 46 48 49 51 55 60 65 68 71 73 76 79 81 80 76 74 72 72 72 72 71 71 73 78 80 76
3 5 8 12 16 20 24 27 29 32 35 38 41 44 47 48 48 47 47 48 50 52 55 60 65 68 71 73 76 78 79 78 74 72 71 71 71 71 70 71 73 78 79 73
1 4 7 10 15 19 22 25 28 32 36 39 43 45 50 52 52 51 49 50 51 53 56 60 65 69 71 73 75 77 78 76 72 70 69 69 69 70 70 71 73 76 78 72
2 3 6 9 13 17 21 26 29 33 37 40 44 47 51 55 56 54 52 52 52 53 56 60 65 69 71 72 75 76 76 74 71 68 68 67 68 69 70 71 72 75 77 73
5 5 7 9 12 16 21 25 29 33 37 41 45 49 53 56 58 57 55 54 53 54 56 60 65 69 71 72 74 75 75 73 70 68 67 66 66 67 69 70 71 73 76 75
9 9 10 11 14 16 19 24 28 33 37 41 46 49 54 57 59 59 57 56 55 55 56 60 65 69 70 71 73 74 73 72 69 67 65 64 64 66 68 70 70 71 73 75
12 12 12 13 15 17 19 23 28 32 36 41 46 50 55 58 61 61 60 58 57 56 57 60 65 68 70 70 71 72 72 71 69 66 64 63 63 64 67 68 69 69 71 73
17 16 16 16 17 19 22 25 29 32 36 41 45 49 54 58 62 64 63 61 60 58 57 60 64 68 69 69 70 70 71 70 68 65 63 62 62 63 64 66 67 67 68 70
21 20 20 20 21 20 23 27 31 34 36 41 45 49 54 58 62 65 66 64 62 60 58 60 64 67 68 68 68 69 70 69 67 64 62 61 61 61 62 64 65 65 66 67
24 23 23 24 25 25 27 29 32 36 40 43 47 51 54 58 62 65 67 67 64 62 59 60 63 66 67 67 67 68 69 68 66 63 60 60 59 60 60 61 63 64 64 65
28 27 26 26 27 28 29 32 34 37 40 44 47 51 54 58 61 65 68 68 67 64 61 60 63 66 67 67 66 67 68 67 66 63 59 58 58 58 59 59 61 62 63 63
32 31 30 29 29 31 31 33 36 37 40 43 46 50 54 57 61 65 68 70 69 66 62 61 62 65 66 66 65 66 66 66 65 62 59 57 57 57 57 57 58 59 60 61
35 34 33 31 30 34 34 35 37 39 40 43 46 50 54 57 61 64 68 70 70 68 64 61 61 64 65 65 64 64 65 65 63 62 59 57 56 55 55 55 56 56 58 58
38 38 36 34 32 36 37 37 39 41 42 44 47 50 54 57 61 64 67 70 71 70 66 61 61 63 64 64 63 63 63 63 62 60 58 56 55 54 54 54 54 54 55 56
42 40 38 36 35 39 37 39 41 43 45 46 47 50 53 57 60 63 66 69 71 70 67 62 60 61 63 63 62 61 62 62 61 59 58 56 54 53 53 53 53 53 54 55
44 41 41 39 40 42 40 41 43 45 47 48 49 51 53 57 60 63 66 68 70 70 68 62 59 60 62 62 61 60 60 60 60 58 57 55 53 51 50 51 52 53 53 53
Wind_Direction
348 344 342 340 336 332 329 327 326 322 317 317 319 318 317 318 317 316 318 320 322 324 326 327 328 329 329 329 330 330 329 328 327 326 325 325 325 324 323 322 321 319 315 310
345 346 342 338 335 331 328 324 323 319 316 318 321 322 317 318 317 317 319 321 323 325 327 329 330 331 331 331 331 330 330 329 328 327 327 327 327 326 325 325 323 319 314 309
347 346 342 339 336 331 330 327 326 325 325 323 323 325 319 319 318 318 320 323 325 327 330 331 332 333 333 332 331 331 331 330 328 328 329 329 329 328 326 326 324 320 314 309
348 345 344 342 339 336 336 335 332 330 329 328 326 326 321 321 320 321 323 326 328 330 332 333 334 335 334 333 332 332 332 330 330 330 331 331 331 330 329 329 326 323 318 313
349 349 348 346 343 341 340 337 333 331 330 329 325 326 325 323 322 324 328 330 332 333 334 335 336 336 335 334 334 334 333 332 331 332 333 333 333 332 332 331 329 326 322 317
353 353 351 349 346 344 341 338 335 333 333 332 331 331 327 326 327 329 332 334 334 334 334 336 338 337 336 335 335 335 334 333 333 334 335 335 334 334 334 333 331 329 326 322
1 1 359 355 352 348 345 343 342 342 342 340 337 334 329 330 332 334 336 336 335 334 335 338 339 338 337 337 337 336 335 335 335 336 337 337 337 337 337 336 335 333 331 328
18 12 6 1 359 356 354 351 349 348 348 346 343 338 335 337 337 338 338 336 334 334 336 338 339 339 339 338 338 337 336 337 337 338 339 339 339 340 340 339 339 338 336 335
33 24 15 10 6 3 1 359 356 352 350 351 351 343 343 343 342 340 339 336 335 335 336 339 340 341 340 340 339 338 338 338 339 340 341 341 342 343 343 343 343 342 342 341
42 34 24 18 12 8 6 3 2 0 356 355 356 350 350 347 344 342 340 337 336 336 337 340 342 342 341 341 340 340 340 340 341 342 344 344 345 346 347 347 347 347 347 346
52 43 32 22 16 12 9 8 6 5 3 359 359 355 353 350 347 344 341 339 337 336 338 341 343 343 343 342 342 342 342 342 343 345 346 347 348 350 350 351 351 352 351 350
61 43 32 24 16 12 10 9 8 8 7 4 2 358 356 355 351 347 343 340 338 337 340 342 344 344 344 344 343 343 344 344 345 346 348 349 351 353 354 354 355 356 356 355
68 32 22 20 15 12 10 8 7 8 7 5 3 1 357 357 354 350 346 342 340 339 341 343 345 345 345 345 345 345 346 346 347 348 350 352 354 356 357 358 359 359 -0 0
270 346 357 4 8 8 7 5 4 5 6 5 2 0 359 357 356 352 348 344 341 340 342 345 346 347 347 346 346 347 347 348 348 350 352 354 356 358 360 1 1 2 3 5
273 307 334 348 356 0 1 360 359 0 2 2 2 0 359 358 356 353 349 345 341 341 343 346 347 348 348 348 348 348 349 349 350 352 353 355 358 0 2 3 4 4 6 8
273 293 315 332 343 350 352 353 354 354 357 359 359 0 360 358 355 353 350 347 343 342 343 346 348 349 349 349 349 350 350 351 352 353 355 357 359 2 3 5 5 6 8 10
272 286 302 316 327 336 343 349 351 353 354 356 357 358 359 357 356 354 352 348 345 344 344 346 348 349 349 350 351 351 351 352 353 355 356 358 360 2 4 6 7 8 10 12
270 281 293 304 316 330 336 342 346 351 351 354 355 356 357 357 356 355 353 350 347 345 344 346 348 349 350 351 352 351 352 354 355 356 358 359 0 3 5 7 8 9 11 13
268 277 289 300 309 321 327 334 340 345 349 351 353 354 355 355 355 354 354 351 349 346 345 347 349 350 351 352 352 352 354 355 357 358 359 359 1 4 6 7 9 11 12 14
265 273 285 297 306 316 323 327 334 339 345 348 351 352 353 353 353 353 353 352 350 347 346 347 349 350 351 352 353 354 355 357 358 359 359 0 2 5 7 8 10 12 13 14
263 270 280 291 301 309 315 322 328 336 341 344 348 349 350 351 351 351 352 352 350 348 347 347 349 350 352 353 354 354 356 358 359 0 0 1 4 6 7 9 11 12 14 15
261 267 275 286 297 304 310 315 322 329 335 340 343 346 347 348 349 350 351 351 350 349 347 347 349 350 351 353 354 355 356 358 360 1 2 3 5 7 8 10 11 13 15 16
261 266 272 282 293 298 304 309 315 322 329 335 339 342 345 345 346 348 349 349 350 349 347 347 348 350 351 353 354 355 356 358 360 2 2 3 5 7 9 11 12 13 15 16
261 264 270 278 288 292 298 304 309 316 323 329 334 339 342 343 344 345 346 347 348 348 347 346 347 349 351 352 354 355 356 358 360 2 3 3 4 7 9 11 12 13 15 16
260 264 269 275 282 285 292 298 304 310 317 323 329 334 338 340 341 342 344 345 346 347 346 346 346 348 350 352 354 355 356 358 360 2 3 3 4 5 7 9 12 13 14 16
260 265 269 272 276 280 287 292 298 305 312 318 324 329 333 336 338 339 341 343 344 345 345 345 345 347 349 351 353 355 356 357 359 1 3 4 4 4 5 7 9 12 14 16